Weather History for Eindhoven, Netherlands

Change the Weather History Date:

Sunday, December 9, 2012

  Actual Average Record
Temperature  
Mean Temperature 35 °F -  
Max Temperature 44 °F 41 °F 53 °F (2011)
Min Temperature 26 °F 32 °F 19 °F (2002)
Degree Days  
Heating Degree Days 30    
Moisture  
Dew Point 37 °F    
Average Humidity 95    
Maximum Humidity 100    
Minimum Humidity 83    
Precipitation  
Precipitation 0.12 in - - ()
Sea Level Pressure  
Sea Level Pressure 29.94 in    
Wind  
Wind Speed 14 mph ()    
Max Wind Speed 23 mph    
Max Gust Speed 39 mph    
Visibility 4.6 miles    
Events Rain , Snow    
Averages and records for this station are not official NWS values.
T = Trace of Precipitation, MM = Missing Value Source: Averaged Metar Reports

Daily Weather History Graph

Daily Weather History Graph

Search for Another Location

Airport:

Trip Planner

Search our weather history database for the weather conditions in past years. The results will help you decide how hot, cold, wet, or windy it might be!

Date:

Astronomy

Dec. 09, 2012 Rise Set
Actual Time 8:31 AM CET 4:29 PM CET
Civil Twilight 7:52 AM CET 5:09 PM CET
Nautical Twilight 7:09 AM CET 5:52 PM CET
Astronomical Twilight 6:28 AM CET 6:33 PM CET
Moon 3:21 AM CET (12/9) 1:48 PM CET (12/9)
Length of Visible Light 9h 17m
Length of Day
7h 57m
Waning Crescent, 21% of the Moon is Illuminated
Dec 9
Waning Crescent
Dec 13
New
Dec 20
First Quarter
Dec 28
Full
Jan 5
Last Quarter

Hourly Weather History & Observations

Time (CET) Temp. Windchill Dew Point Humidity Pressure Visibility Wind Dir Wind Speed Gust Speed Precip Events Conditions
12:25 AM 32.0 °F 22.1 °F 30.2 °F 93% 30.21 in 3.7 mi SSW 13.8 mph - N/A   Overcast
12:55 AM 32.0 °F 22.1 °F 30.2 °F 93% 30.21 in 3.7 mi SSW 13.8 mph - N/A   Mostly Cloudy
1:00 AM 32 °F - 30 °F 90% 30.22 in 4 mi SSW 13.4 mph - -   Mist
1:25 AM 32.0 °F 22.1 °F 30.2 °F 93% 30.18 in 3.7 mi SSW 13.8 mph - N/A Snow Light Snow Grains
1:55 AM 32.0 °F 22.1 °F 30.2 °F 93% 30.18 in 3.7 mi SSW 13.8 mph - N/A   Light Drizzle
2:04 AM 33.8 °F 24.3 °F 32.0 °F 93% 30.18 in 3.1 mi SSW 13.8 mph - N/A Rain Light Rain
2:05 AM 33.8 °F 24.3 °F 32.0 °F 93% 30.18 in 3.1 mi SSW 13.8 mph - N/A Rain Light Rain
2:19 AM 33.8 °F 24.8 °F 32.0 °F 93% 30.18 in - SSW 12.7 mph - N/A Rain Light Rain Showers
2:25 AM 33.8 °F 24.8 °F 32.0 °F 93% 30.18 in - SSW 12.7 mph - N/A Rain Light Rain
2:29 AM 33.8 °F 24.8 °F 32.0 °F 93% 30.18 in - SSW 12.7 mph - N/A Rain Light Rain Showers
2:33 AM 33.8 °F 24.3 °F 32.0 °F 93% 30.18 in 3.1 mi SSW 13.8 mph - N/A Rain Light Rain Showers
2:39 AM 33.8 °F 24.3 °F 32.0 °F 93% 30.18 in - SSW 13.8 mph - N/A Rain Light Rain
2:46 AM 33.8 °F 24.3 °F 32.0 °F 93% 30.18 in - SSW 13.8 mph - N/A Rain Light Rain
2:55 AM 33.8 °F 24.3 °F 32.0 °F 93% 30.18 in - SSW 13.8 mph - N/A   Mostly Cloudy
2:59 AM 33.8 °F 24.3 °F 32.0 °F 93% 30.18 in - SSW 13.8 mph - N/A Snow Light Snow Showers
3:13 AM 33.8 °F 24.3 °F 32.0 °F 93% 30.15 in 1.7 mi SSW 13.8 mph - N/A Snow Light Snow
3:20 AM 33.8 °F 24.3 °F 32.0 °F 93% 30.15 in 1.6 mi SSW 13.8 mph - N/A Snow Light Snow
3:25 AM 33.8 °F 24.3 °F 32.0 °F 93% 30.15 in 1.4 mi SSW 13.8 mph - N/A Snow Light Snow
3:36 AM 33.8 °F 23.9 °F 32.0 °F 93% 30.15 in - SSW 15.0 mph - N/A Snow Light Snow
3:41 AM 33.8 °F 24.3 °F 32.0 °F 93% 30.15 in - SSW 13.8 mph - N/A Snow Light Snow
3:46 AM 33.8 °F 24.3 °F 32.0 °F 93% 30.15 in - SSW 13.8 mph - N/A   Mostly Cloudy
3:48 AM 33.8 °F 24.3 °F 33.8 °F 100% 30.15 in 2.2 mi SSW 13.8 mph - N/A   Mostly Cloudy
3:55 AM 33.8 °F 24.3 °F 33.8 °F 100% 30.15 in - SSW 13.8 mph - N/A Rain Light Rain
3:59 AM 33.8 °F 23.5 °F 33.8 °F 100% 30.12 in 2.5 mi SSW 16.1 mph - N/A Rain Light Rain
4:00 AM 34 °F - 33 °F 94% 30.15 in 2 mi SSW 15.7 mph - - Snow Snow
4:03 AM 33.8 °F 23.5 °F 33.8 °F 100% 30.12 in 1.6 mi SSW 16.1 mph - N/A Rain , Snow Light Rain
4:08 AM 33.8 °F 23.5 °F 33.8 °F 100% 30.12 in - SSW 16.1 mph - N/A Snow Light Snow
4:12 AM 33.8 °F 23.9 °F 33.8 °F 100% 30.12 in 2.2 mi SSW 15.0 mph - N/A Snow Light Snow
4:16 AM 33.8 °F 23.5 °F 33.8 °F 100% 30.12 in 2.5 mi SSW 16.1 mph - N/A Rain , Snow Light Rain
4:25 AM 33.8 °F 23.5 °F 33.8 °F 100% 30.12 in - SSW 16.1 mph - N/A Rain Light Rain
4:31 AM 33.8 °F 23.5 °F 33.8 °F 100% 30.12 in 3.1 mi SSW 16.1 mph - N/A Rain Light Rain
4:40 AM 33.8 °F 23.5 °F 33.8 °F 100% 30.12 in - SSW 16.1 mph - N/A   Drizzle
4:55 AM 33.8 °F 23.5 °F 33.8 °F 100% 30.09 in 3.1 mi SSW 16.1 mph - N/A   Overcast
5:16 AM 33.8 °F 23.5 °F 33.8 °F 100% 30.09 in - SW 16.1 mph - N/A   Light Drizzle
5:20 AM 33.8 °F 23.5 °F 33.8 °F 100% 30.09 in 3.1 mi SW 16.1 mph - N/A   Mostly Cloudy
5:25 AM 33.8 °F 23.9 °F 33.8 °F 100% 30.09 in 3.1 mi SW 15.0 mph - N/A   Mostly Cloudy
5:31 AM 33.8 °F 23.5 °F 33.8 °F 100% 30.09 in 3.1 mi SW 16.1 mph - N/A   Mostly Cloudy
5:35 AM 33.8 °F 23.5 °F 33.8 °F 100% 30.09 in 3.1 mi SW 16.1 mph - N/A   Overcast
5:36 AM 33.8 °F 23.5 °F 33.8 °F 100% 30.06 in 3.1 mi SSW 16.1 mph - N/A   Overcast
5:55 AM 33.8 °F 22.8 °F 33.8 °F 100% 30.06 in 3.1 mi SW 18.4 mph - N/A   Mostly Cloudy
6:09 AM 33.8 °F 22.8 °F 33.8 °F 100% 30.06 in - SW 18.4 mph - N/A   Overcast
6:16 AM 33.8 °F 22.8 °F 33.8 °F 100% 30.06 in - SW 18.4 mph - N/A   Overcast
6:25 AM 33.8 °F 22.8 °F 33.8 °F 100% 30.06 in - SW 18.4 mph - N/A   Overcast
6:30 AM 33.8 °F 22.8 °F 33.8 °F 100% 30.06 in 2.8 mi SW 18.4 mph - N/A   Overcast
6:38 AM 33.8 °F 22.8 °F 33.8 °F 100% 30.06 in - SW 18.4 mph - N/A   Overcast
6:42 AM 33.8 °F 23.2 °F 33.8 °F 100% 30.06 in - SW 17.3 mph - N/A   Drizzle
6:43 AM 33.8 °F 23.2 °F 33.8 °F 100% 30.04 in - SW 17.3 mph - N/A   Drizzle
6:55 AM 33.8 °F 23.2 °F 33.8 °F 100% 30.04 in - SW 17.3 mph - N/A   Drizzle
7:00 AM 35 °F - 34 °F 95% 30.05 in 2 mi SW 17.9 mph - - Rain Light Drizzle
7:06 AM 35.6 °F 25.2 °F 33.8 °F 93% 30.04 in - SW 18.4 mph - N/A   Drizzle
7:10 AM 33.8 °F 22.8 °F 33.8 °F 100% 30.04 in 1.7 mi SW 18.4 mph - N/A Rain Rain
7:25 AM 35.6 °F 25.2 °F 33.8 °F 93% 30.04 in 1.4 mi SW 18.4 mph - N/A Rain Rain
7:55 AM 35.6 °F 24.8 °F 35.6 °F 100% 30.01 in 1.4 mi SW 19.6 mph - N/A   Overcast
8:25 AM 35.6 °F 25.5 °F 35.6 °F 100% 30.01 in 1.7 mi SW 17.3 mph - N/A   Overcast
8:55 AM 35.6 °F 25.5 °F 35.6 °F 100% 30.01 in 1.4 mi SW 17.3 mph - N/A Rain Light Drizzle
9:25 AM 35.6 °F 25.5 °F 35.6 °F 100% 29.98 in 1.8 mi SW 17.3 mph - N/A Rain Light Rain
9:55 AM 37.4 °F 27.5 °F 35.6 °F 93% 29.98 in 1.6 mi SW 18.4 mph - N/A Rain Light Drizzle
10:00 AM 36 °F - 36 °F 100% 29.99 in 2 mi SW 17.9 mph - - Rain Heavy Rain
10:25 AM 37.4 °F 27.5 °F 37.4 °F 100% 29.95 in - SW 18.4 mph - N/A Rain Light Rain
10:55 AM 37.4 °F 28.2 °F 37.4 °F 100% 29.95 in 1.7 mi SW 16.1 mph - N/A   Light Drizzle
11:25 AM 37.4 °F 27.8 °F 37.4 °F 100% 29.92 in 1.5 mi SW 17.3 mph - N/A   Light Drizzle
11:55 AM 39.2 °F 30.2 °F 39.2 °F 100% 29.92 in 1.8 mi SW 17.3 mph - N/A Rain Light Rain
12:25 PM 39.2 °F 30.5 °F 39.2 °F 100% 29.89 in 1.8 mi SW 16.1 mph - N/A Rain Light Rain
12:55 PM 39.2 °F 31.2 °F 39.2 °F 100% 29.89 in - WSW 13.8 mph - N/A Rain Light Rain
12:59 PM 41.0 °F 33.1 °F 41.0 °F 100% 29.89 in - WSW 15.0 mph - N/A Rain Light Rain
1:00 PM 40 °F - 40 °F 100% 29.89 in 2 mi WSW 15.7 mph - - Rain Light Rain
1:16 PM 41.0 °F 33.1 °F 41.0 °F 100% 29.86 in 1.6 mi SW 15.0 mph - N/A Rain Light Rain
1:25 PM 41.0 °F 33.5 °F 41.0 °F 100% 29.86 in 1.9 mi WSW 13.8 mph - N/A Rain Light Rain
1:55 PM 42.8 °F 35.4 °F 42.8 °F 100% 29.86 in 3.1 mi WSW 15.0 mph - N/A Rain Light Rain
1:59 PM 42.8 °F 35.8 °F 42.8 °F 100% 29.86 in - WSW 13.8 mph - N/A Rain Rain
2:25 PM 42.8 °F 34.5 °F 42.8 °F 100% 29.83 in 6.2 mi WSW 18.4 mph 29.9 mph N/A Rain Light Rain
2:26 PM 44.6 °F 37.2 °F 42.8 °F 93% 29.83 in 6.2 mi West 17.3 mph - N/A   Mostly Cloudy
2:42 PM 44.6 °F 38.1 °F 42.8 °F 93% 29.83 in 6.2 mi West 13.8 mph - N/A   Mostly Cloudy
2:55 PM 44.6 °F 38.4 °F 42.8 °F 93% 29.83 in 6.2 mi West 12.7 mph - N/A   Overcast
3:06 PM 44.6 °F 38.1 °F 42.8 °F 93% 29.83 in 6.2 mi West 13.8 mph - N/A   Overcast
3:11 PM 44.6 °F 37.8 °F 42.8 °F 93% 29.83 in 6.2 mi West 15.0 mph - N/A   Overcast
3:25 PM 44.6 °F 37.4 °F 42.8 °F 93% 29.83 in 6.2 mi West 16.1 mph - N/A   Mostly Cloudy
3:33 PM 44.6 °F 37.4 °F 42.8 °F 93% 29.83 in 6.2 mi WSW 16.1 mph - N/A   Light Drizzle
3:55 PM 44.6 °F 37.4 °F 42.8 °F 93% 29.80 in 6.2 mi WSW 16.1 mph - N/A   Mostly Cloudy
4:00 PM 44 °F - 42 °F 91% 29.82 in 16 mi WSW 17.9 mph - - Rain Rain
4:05 PM 44.6 °F 37.2 °F 42.8 °F 93% 29.80 in 6.2 mi WSW 17.3 mph - N/A   Mostly Cloudy
4:09 PM 44.6 °F 37.2 °F 42.8 °F 93% 29.80 in 6.2 mi WSW 17.3 mph 29.9 mph N/A   Mostly Cloudy
4:25 PM 44.6 °F 37.4 °F 42.8 °F 93% 29.80 in 6.2 mi West 16.1 mph - N/A   Mostly Cloudy
4:37 PM 44.6 °F 37.2 °F 42.8 °F 93% 29.80 in 6.2 mi West 17.3 mph - N/A   Mostly Cloudy
4:55 PM 44.6 °F 38.1 °F 41.0 °F 87% 29.80 in 6.2 mi West 13.8 mph - N/A   Overcast
5:02 PM 44.6 °F 38.1 °F 42.8 °F 93% 29.80 in 6.2 mi West 13.8 mph - N/A Rain Light Rain
5:05 PM 42.8 °F 36.2 °F 41.0 °F 93% 29.80 in 6.2 mi WSW 12.7 mph - N/A   Mostly Cloudy
5:16 PM 44.6 °F 38.4 °F 41.0 °F 87% 29.80 in 6.2 mi West 12.7 mph - N/A   Mostly Cloudy
5:25 PM 44.6 °F 38.4 °F 41.0 °F 87% 29.77 in 6.2 mi West 12.7 mph - N/A   Mostly Cloudy
5:37 PM 44.6 °F 37.2 °F 42.8 °F 93% 29.77 in 5.0 mi WSW 17.3 mph - N/A   Heavy Drizzle
5:46 PM 44.6 °F 36.9 °F 41.0 °F 87% 29.77 in 6.2 mi WSW 18.4 mph - N/A   Mostly Cloudy
5:51 PM 42.8 °F 35.1 °F 41.0 °F 93% 29.77 in 6.2 mi West 16.1 mph - N/A   Mostly Cloudy
5:55 PM 42.8 °F 35.4 °F 41.0 °F 93% 29.77 in 6.2 mi West 15.0 mph - N/A   Mostly Cloudy
6:08 PM 42.8 °F 36.2 °F 39.2 °F 87% 29.77 in 6.2 mi West 12.7 mph - N/A   Partly Cloudy
6:25 PM 42.8 °F 37.0 °F 39.2 °F 87% 29.77 in 6.2 mi West 10.4 mph - N/A   Unknown
6:29 PM 41.0 °F 34.7 °F 39.2 °F 93% 29.77 in 6.2 mi West 10.4 mph - N/A   Unknown
6:55 PM 41.0 °F 34.7 °F 39.2 °F 93% 29.77 in 6.2 mi West 10.4 mph - N/A   Partly Cloudy
7:00 PM 41 °F - 39 °F 88% 29.78 in 14 mi West 11.2 mph - -   Partly Cloudy
7:25 PM 41.0 °F 35.2 °F 37.4 °F 87% 29.77 in 6.2 mi West 9.2 mph - N/A   Partly Cloudy
7:55 PM 41.0 °F 35.2 °F 39.2 °F 93% 29.77 in 6.2 mi West 9.2 mph - N/A   Mostly Cloudy
8:25 PM 41.0 °F 34.3 °F 37.4 °F 87% 29.74 in 6.2 mi WSW 11.5 mph - N/A   Mostly Cloudy
8:40 PM 41.0 °F 33.9 °F 37.4 °F 87% 29.74 in 6.2 mi WSW 12.7 mph - N/A   Overcast
8:55 PM 41.0 °F 33.1 °F 37.4 °F 87% 29.74 in 6.2 mi West 15.0 mph - N/A   Mostly Cloudy
9:05 PM 42.8 °F 35.8 °F 39.2 °F 87% 29.74 in 6.2 mi West 13.8 mph 32.2 mph N/A Rain Light Rain
9:09 PM 41.0 °F 31.1 °F 39.2 °F 93% 29.74 in 3.1 mi WNW 23.0 mph 39.1 mph N/A Rain Rain
9:17 PM 39.2 °F 29.6 °F 37.4 °F 93% 29.77 in - WNW 19.6 mph - N/A Rain Light Rain Showers
9:25 PM 39.2 °F 30.2 °F 37.4 °F 93% 29.77 in 3.7 mi WNW 17.3 mph - N/A Rain Rain Showers
9:30 PM 39.2 °F 29.8 °F 37.4 °F 93% 29.77 in 6.2 mi West 18.4 mph - N/A Rain Light Rain Showers
9:35 PM 39.2 °F 30.2 °F 37.4 °F 93% 29.74 in 6.2 mi West 17.3 mph 28.8 mph N/A   Drizzle
9:48 PM 39.2 °F 31.6 °F 37.4 °F 93% 29.74 in 6.2 mi West 12.7 mph - N/A   Mostly Cloudy
9:55 PM 39.2 °F 31.6 °F 37.4 °F 93% 29.74 in 6.2 mi West 12.7 mph - N/A   Overcast
10:00 PM 40 °F - 37 °F 83% 29.77 in 28 mi West 13.4 mph - - Rain Rain
10:20 PM 39.2 °F 31.2 °F 37.4 °F 93% 29.74 in 6.2 mi West 13.8 mph - N/A Rain Light Rain
10:25 PM 39.2 °F 32.0 °F 37.4 °F 93% 29.74 in 6.2 mi West 11.5 mph - N/A Rain Light Rain
10:29 PM 39.2 °F 31.6 °F 37.4 °F 93% 29.74 in 6.2 mi West 12.7 mph - N/A Rain Light Rain
10:35 PM 39.2 °F 31.6 °F 37.4 °F 93% 29.74 in 4.3 mi West 12.7 mph - N/A Rain Light Rain
10:37 PM 39.2 °F 31.6 °F 37.4 °F 93% 29.74 in - West 12.7 mph - N/A Rain Rain Showers
10:43 PM 39.2 °F 31.6 °F 37.4 °F 93% 29.74 in 6.2 mi West 12.7 mph - N/A Rain Rain Showers
10:47 PM 39.2 °F 31.2 °F 37.4 °F 93% 29.74 in 6.2 mi West 13.8 mph - N/A   Mostly Cloudy
10:55 PM 39.2 °F 31.6 °F 37.4 °F 93% 29.74 in 6.2 mi West 12.7 mph - N/A   Mostly Cloudy
11:08 PM 39.2 °F 31.6 °F 37.4 °F 93% 29.74 in 6.2 mi West 12.7 mph - N/A   Partly Cloudy
11:25 PM 39.2 °F 32.0 °F 37.4 °F 93% 29.74 in 6.2 mi West 11.5 mph - N/A   Scattered Clouds
11:35 PM 41.0 °F 33.9 °F 37.4 °F 87% 29.74 in 6.2 mi West 12.7 mph 26.5 mph N/A Rain Light Rain
11:42 PM 41.0 °F 33.1 °F 37.4 °F 87% 29.74 in 6.2 mi West 15.0 mph 26.5 mph N/A   Scattered Clouds
11:55 PM 41.0 °F 33.5 °F 37.4 °F 87% 29.74 in 6.2 mi West 13.8 mph 26.5 mph N/A   Scattered Clouds